This is the latest recevied weather packets stored in our database for station/object WA7SB-7. If no packets are shown the sender has not sent any weather packets the latest 10 day(s).
| Time | Temp. | Humidity | Pressure | Rain* | Wind** | Luminosity | Snow |
|---|---|---|---|---|---|---|---|
| 1788031169 | 18.33° C | 79% | 1021.4 hPa | 0 mm | - | - | - |
| 1788030932 | 18.89° C | 79% | 1021.4 hPa | 0 mm | - | - | - |
| 1788030854 | 18.89° C | 81% | 1021.4 hPa | 0 mm | - | - | - |
| 1788030618 | 18.89° C | 80% | 1021.4 hPa | 0 mm | - | - | - |
| 1788030559 | 18.33° C | 81% | 1021.4 hPa | 0 mm | - | - | - |
| 1788030324 | 18.33° C | 81% | 1021.2 hPa | 0 mm | - | - | - |
| 1788030265 | 18.33° C | 80% | 1021.2 hPa | 0 mm | - | - | - |
| 1788030019 | 18.33° C | 80% | 1021.2 hPa | 0 mm | - | - | - |
| 1788029959 | 18.33° C | 80% | 1021.2 hPa | 0 mm | - | - | - |
| 1788029721 | 18.33° C | 81% | 1021.2 hPa | 0 mm | - | - | - |
| 1788029661 | 18.33° C | 80% | 1021.3 hPa | 0 mm | - | - | - |
| 1788029421 | 18.33° C | 83% | 1021.4 hPa | 0 mm | - | - | - |
| 1788029360 | 17.78° C | 82% | 1021.4 hPa | 0 mm | - | - | - |
| 1788029122 | 18.33° C | 80% | 1021.5 hPa | 0 mm | - | - | - |
| 1788029065 | 18.33° C | 80% | 1021.5 hPa | 0 mm | - | - | - |
| 1788028828 | 17.78° C | 82% | 1021.5 hPa | 0 mm | - | - | - |
| 1788028769 | 17.78° C | 82% | 1021.5 hPa | 0 mm | - | - | - |
| 1788028529 | 17.78° C | 83% | 1021.3 hPa | 0 mm | - | - | - |
| 1788028473 | 17.78° C | 83% | 1021.4 hPa | 0 mm | - | - | - |
| 1788028232 | 17.78° C | 82% | 1021.4 hPa | 0 mm | - | - | - |
| 1788028158 | 17.78° C | 81% | 1021.3 hPa | 0 mm | - | - | - |
| 1788027918 | 18.33° C | 81% | 1021.3 hPa | 0 mm | - | - | - |
| 1788027864 | 18.33° C | 81% | 1021.3 hPa | 0 mm | - | - | - |
| 1788027622 | 18.33° C | 81% | 1021.3 hPa | 0 mm | - | - | - |
| 1788027563 | 18.33° C | 83% | 1021.3 hPa | 0 mm | - | - | - |
* Rain latest hour (hover to see other rain measurements)
** Current wind speed in m/s (hover to see current wind gust speed)